{"data":{"norad_id":62494,"epoch":"2026-09-21T17:03:56.886912Z","epoch_age_seconds":69891,"freshness":"FRESH","line1":"1 62494U 25003H   26264.71107508  .00005497  00000+0  20910-3 0  9993","line2":"2 62494  43.0006 261.6717 0000449 270.7407  89.3393 15.27583619 96652","mean_motion":15.27583619,"eccentricity":4.49e-5,"inclination_deg":43.0006,"raan_deg":261.6717,"arg_perigee_deg":270.7407,"mean_anomaly_deg":89.3393,"bstar":0.0002091,"rev_number":9665,"period_min":94.266525386196,"perigee_km":482.73019270397,"apogee_km":483.34632624227,"semimajor_km":6861.1752594731,"source":"CELESTRAK","updated_at":"2026-09-22T09:00:49.617452Z"}}